Regional Weather Roundup
Issued by NWS

Home | Current Version | Previous Version | Graphics & Text | Print | Product List | Glossary On
Versions: 1 2 3 4 5 6 7 8 9 10 11 12 13 14 15 16 17 18 19 20 21 22 23 24 25 26 27 28 29 30 31 32 33 34 35 36 37 38 39 40 41 42 43 44 45 46 47 48 49 50
000
ASUS43 KIND 070509
RWRIN

WEATHER ROUNDUP FOR INDIANA
NATIONAL WEATHER SERVICE INDIANAPOLIS IN
100 AM EDT THU MAY 07 2015

NOTE: "FAIR" INDICATES FEW OR NO CLOUDS BELOW 12,000 FEET WITH NO
SIGNIFICANT WEATHER AND/OR OBSTRUCTIONS TO VISIBILITY.

* - STATION DOES NOT REPORT WEATHER SUCH AS PRECIPITATION OR FOG.

+ - STATION NOT QUALITY CONTROLLED BY THE NATIONAL WEATHER SERVICE.
    USE DATA WITH CAUTION...ESPECIALLY DEWPOINT AND RELATIVE
    HUMIDITY OBSERVATIONS.

INZ001>003-010>013-019-020-070600-
NORTHWEST INDIANA

CITY           SKY/WX    TMP DP  RH WIND       PRES   REMARKS
GARY /AIRPORT/ CLEAR     53  47  83 CALM      30.08F
KNOX *+        CLEAR     66  48  52 SE10      30.10R
LA PORTE +     PTCLDY    65  61  85 SE5       30.12R
MICHIGAN CITY+ PTCLDY    68  55  64 SE6       30.10R
MONTICELLO +   FAIR      64  60  84 SE3       30.09R
VALPARAISO     CLEAR     64  54  69 E6        30.10R

$$

LMZ046-743>745-070600-
SOUTHERN LAKE MICHIGAN

STATION/POSITION TIME  TEMP    WIND        PRES    WAVE
                       AIR SEA DIR/SP/G            HT
                 (UTC) (F)     (DEG/KT/KT) (MB)    (FT)
BURNS HARBOR     0500   54     220/  3/  5 1019.0S
MICHIGAN CITY    0500   71     110/ 10/ 15   N/A
5NW MICH CITY    0500   63 53  150/ 10/ 10   N/A     1

$$

INZ004-005-014>016-021>024-070600-
NORTH CENTRAL INDIANA

CITY           SKY/WX    TMP DP  RH WIND       PRES   REMARKS
GOSHEN         PTCLDY    64  60  87 SE8       30.13R FOG
LOGANSPORT +   FAIR      63  54  72 E7        30.12R
PERU/GRISSOM   FAIR      65  58  78 E6        30.11R
ROCHESTER +    FAIR      70  63  78 SE8       30.13R
SOUTH BEND     MOCLDY    68  61  78 E8        30.12R
WARSAW +       PTCLDY    64  61  88 E8        30.13R FOG

$$

INZ006>009-017-018-025>027-070600-
NORTHEAST INDIANA

CITY           SKY/WX    TMP DP  RH WIND       PRES   REMARKS
ANGOLA *+      CLEAR     59  57  94 SE8       30.16S
AUBURN +       CLEAR     59  55  88 E5        30.17R FOG
FORT WAYNE     CLEAR     62  58  86 E7        30.15S
HUNTINGTON +   CLEAR     63  59  87 E5        30.14R

$$

INZ028-029-035-036-043>045-051>053-070600-
WEST CENTRAL INDIANA

CITY           SKY/WX    TMP DP  RH WIND       PRES   REMARKS
CRAWFORDSVL +  CLEAR     61  49  65 SE5       30.11R
GREENCASTLE +  CLEAR     64  50  59 CALM      30.11S
LAFAYETTE      CLEAR     63  55  75 CALM      30.09R
TERRE HAUTE    CLEAR     63  55  75 E3        30.09S

$$

INZ030>032-037>040-046>048-054>057-064-065-070600-
CENTRAL INDIANA

CITY           SKY/WX    TMP DP  RH WIND       PRES   REMARKS
CP ATTERBURY + CLEAR     59  55  88 CALM      30.12S
FRANKFORT +    CLEAR     63  55  74 CALM      30.12S
GREENWOOD *+   CLEAR     68  50  52 SE3       30.12R
INDIANAPOLIS   CLEAR     69  52  54 S6        30.10R
-EAGLE CREEK   CLEAR     64  59  83 CALM      30.11R
KOKOMO *+      CLEAR     64  57  77 E7        30.11S
MARION +       CLEAR     66  56  69 E6        30.14R
MT COMFORT *+  CLEAR     64  45  48 SE5       30.12S
SHELBYVILLE    CLEAR     64  54  69 E7        30.11S
ZIONSVILLE +   CLEAR     64  56  75 CALM      30.12S

$$

INZ033-034-041-042-049-050-058-059-070600-
EAST CENTRAL INDIANA

CITY           SKY/WX    TMP DP  RH WIND       PRES   REMARKS
MUNCIE         CLEAR     65  58  78 SE5       30.13S

$$

INZ060-061-067>069-081>083-085>088-070600-
SOUTHWEST INDIANA

CITY           SKY/WX    TMP DP  RH WIND       PRES   REMARKS
EVANSVILLE     CLEAR     65  59  81 CALM      30.08S
HUNTINGBURG *+ CLEAR     68  55  64 SE5       30.09S
WASHINGTON +   CLEAR     64  54  69 CALM      30.08S

$$

INZ062-063-066-070>080-084-089>092-070600-
SOUTH CENTRAL AND SOUTHEAST INDIANA

CITY           SKY/WX    TMP DP  RH WIND       PRES   REMARKS
BLOOMINGTON    CLEAR     61  55  81 CALM      30.11R
MADISON *+     CLEAR     61  55  82 CALM      30.13S
NORTH VERNON + CLEAR     63  61  94 CALM      30.12S
SEYMOUR +      CLEAR     64  59  82 CALM      30.10F

$$




USA.gov is the U.S. government's official web portal to all federal, state and local government web resources and services.